Location: Newark
(60.0000°N, 100.0000°E)
Time: 01:54:07
(UTC+00:00)

N. Korean satellite - Pass Details

Date: 27 November 2019
Orbit: 455 x 507 km, 97.2° (Epoch: 14 December)

Event Time Altitude Azimuth Distance (km) Brightness Sun altitude
Rises 11:49:18 0° 224° (SW) 2,602 10.9 -23.4°
Reaches altitude 10° 11:52:57 10° 262° (W) 1,728 10.4 -23.8°
Maximum altitude 11:53:58 11° 278° (W) 1,673 10.3 -23.9°
Drops below altitude 10° 11:55:00 10° 294° (WNW) 1,733 10.2 -24.1°
Sets 11:58:41 0° 332° (NNW) 2,624 10.6 -24.5°
